FENGYUN 1C DEB

Satellite information

Favourite Embed

Satellite Type and Status

DEBRISIN ORBIT

Key statistics

Satellite FENGYUN 1C DEB at a glance.

Uptime

9613

Days in orbit

Revolutions

≈ 14.3

Per day

Orbit

SSO

Sun Synchronous Orbit

Inclination

98.6

Latest

Satellite identification and parameters

Extended collection of information and parameters for FENGYUN 1C DEB.

Object identification

Identified? True

Debris? True

Object name: FENGYUN 1C DEB

International designator: 1999-025BAF

Object number (NORAD): 30941

Object ID (CCSDS): 30941

Country: PEOPLES REPUBLIC OF CHINA (PRC)

Current information (Y/N): Y

RCS size: SMALL

Orbital parameters

Period: 100.714 minutes

Inclination: 98.5524 deg

SMA: 7170.586 km

Apoapsis: 815.117 km

Periapsis: 769.785 km

RAAN: 104.1004 deg

Eccentricy: 0.00316098

Argument of periapsis: 254.7729 deg

Mean anomaly: 104.9958 deg

Mean motion: 14.29785264 rev/day

Mean motion (dot): 0.00008092 rev/day2

B* drag term: 0.0031467966 1/REarth

Two-line elements (TLE)

Creation date: Sept. 2, 2025, 11:42 p.m.

Reference frame: TEME

Reference center: EARTH

Epoch: Sept. 2, 2025, 1:02 p.m. UTC

TLE line 0: 0 FENGYUN 1C DEB

TLE line 1: 1 30941U 99025BAF 25245.54326948 .00008092 00000-0 31468-2 0 9994

TLE line 2: 2 30941 98.5524 104.1004 0031610 254.7729 104.9958 14.29785264951794

Live tracking on map

Real-time ground track for satellite FENGYUN 1C DEB.

In-orbit conjunctions

A list of the most updated potential collisions computed for object FENGYUN 1C DEB.

Target Orbit TCA Probability of collision Miss distance Type
FEDSAT SSO 2025-05-30 02:48:44 0.0004511201 182.0 (m) PAYLOAD
TIROS N SSO 2024-10-06 14:08:57 0.0001570039 237.0 (m) PAYLOAD
CZ-6A DEB LEO 2024-09-28 04:18:35 0.0002116385 802.0 (m) DEBRIS
FENGYUN 1C DEB SSO 2024-09-27 06:24:53 0.0001199965 624.0 (m) DEBRIS
CZ-6A DEB SSO 2024-09-26 15:00:46 0.0002449467 778.0 (m) DEBRIS

Associated space launch

Chinese polar orbiting meteorological satellite

FENGYUN 1C DEB was lifted into orbit during the mission ‘Long March 4B | Feng Yun 1C’, on board a Long March 4B space rocket.

The launch took place on May 10, 1999, 1:33 a.m. from Launch Complex 7.

For more information about the launch, click the button.

Launch to space Long March 4B | Feng Yun 1C
Long March 4B | Feng Yun 1C

Agency: N/A

Status: Launch Successful

Launch date: May 10, 1999, 1:33 a.m. UTC

Rocket: Long March 4B

Launch pad: Launch Complex 7

Location: Taiyuan Satellite Launch Center, People's Republic of China

...

Latest news about this satellite

There are no fresh news available about this satellite. Check back as we update our databases every day.


Newsletter sign-up

Weekly statistics, charts and insights to help you stay on top of the space industry.